Tracking 27428 objects as of 1-Jun-2023
HD Live streaming from Space Station
objects crossing your sky now

COSMOS 2251 DEB

Track COSMOS 2251 DEB now!
10-day predictions


NORAD ID: 37547
Int'l Code: 1993-036BPC
Perigee: 646.8 km
Apogee: 679.3 km
Inclination: 74.0 °
Period: 97.9 minutes
Semi major axis: 7034 km
RCS: 0.008 m2 (small)
Launch date: June 16, 1993
Source: Commonwealth of Independent States (former USSR) (CIS)
Launch site: PLESETSK MISSILE AND SPACE COMPLEX (PKMTR)

Note: This is SATELLITE DEBRIS
Your satellite tracking list
Your tracking list is empty




NASA's NSSDC Master Catalog

Two Line Element Set (TLE):
1 37547U 93036BPC 23150.91105441  .00009460  00000-0  15169-2 0  9996
2 37547  74.0337 219.3299 0023143 237.2388 122.6554 14.71621336724184
Source of the keplerian elements: AFSPC